| time (UTC) | temp F | wind direction | speed MPH | gust MPH | rain 1hr in | rain 24hr in | rain mn in | humidity % | barometer mb |
| 20260509183013 | 81 | 243 | 0.0 | 7.0 | 0.00 | 0.00 | 0.00 | 49 | 1011.3 |
| 20260509181517 | 81 | 54 | 1.0 | 4.0 | 0.00 | 0.00 | 0.00 | 47 | 1011.5 |
| 20260509180013 | 80 | 125 | 0.0 | 4.0 | 0.00 | 0.00 | 0.00 | 52 | 1011.7 |
| 20260509174514 | 79 | 243 | 2.0 | 7.0 | 0.00 | 0.00 | 0.00 | 50 | 1011.9 |
| 20260509173011 | 79 | 359 | 0.0 | 3.0 | 0.00 | 0.00 | 0.00 | 51 | 1011.9 |
| 20260509171514 | 79 | 269 | 0.0 | 3.0 | 0.00 | 0.00 | 0.00 | 53 | 1011.9 |
| 20260509170013 | 78 | 359 | 0.0 | 4.0 | 0.00 | 0.00 | 0.00 | 56 | 1011.9 |
| 20260509164512 | 77 | 236 | 1.0 | 4.0 | 0.00 | 0.00 | 0.00 | 57 | 1011.8 |
| 20260509163019 | 76 | 270 | 0.0 | 6.0 | 0.00 | 0.00 | 0.00 | 61 | 1011.9 |
| 20260509161513 | 75 | 4 | 0.0 | 5.0 | 0.00 | 0.00 | 0.00 | 64 | 1011.9 |
| 20260509160012 | 74 | 267 | 0.0 | 4.0 | 0.00 | 0.00 | 0.00 | 67 | 1011.6 |
| 20260509154510 | 73 | 56 | 0.0 | 4.0 | 0.00 | 0.00 | 0.00 | 66 | 1011.5 |
| 20260509153012 | 72 | 1 | 1.0 | 3.0 | 0.00 | 0.00 | 0.00 | 70 | 1011.3 |
| 20260509151512 | 72 | 245 | 0.0 | 3.0 | 0.00 | 0.00 | 0.00 | 74 | 1011.4 |
| 20260509150019 | 70 | 231 | 0.0 | 6.0 | 0.00 | 0.00 | 0.00 | 76 | 1011.4 |
| 20260509144614 | 69 | 313 | 0.0 | 6.0 | 0.00 | 0.00 | 0.00 | 79 | 1011.6 |
| 20260509143019 | 67 | 251 | 2.0 | 4.0 | 0.00 | 0.00 | 0.00 | 84 | 1011.8 |
| 20260509141512 | 66 | 231 | 1.0 | 4.0 | 0.00 | 0.00 | 0.00 | 86 | 1012.0 |
| 20260509140012 | 65 | 216 | 1.0 | 4.0 | 0.00 | 0.00 | 0.00 | 87 | 1011.8 |
| 20260509134512 | 63 | 165 | 2.0 | 5.0 | 0.00 | 0.00 | 0.00 | 88 | 1011.5 |
| 20260509133011 | 63 | 165 | 1.0 | 6.0 | 0.00 | 0.00 | 0.00 | 89 | 1011.3 |
| 20260509131527 | 62 | 214 | 1.0 | 4.0 | 0.00 | 0.00 | 0.00 | 90 | 1011.3 |
| 20260509130022 | 61 | 167 | 2.0 | 5.0 | 0.00 | 0.00 | 0.00 | 91 | 1011.3 |
| 20260509124507 | 60 | 150 | 1.0 | 4.0 | 0.00 | 0.00 | 0.00 | 92 | 1011.3 |
| 20260509123011 | 59 | 155 | 0.0 | 3.0 | 0.00 | 0.00 | 0.00 | 93 | 1011.4 |
| 20260509121512 | 59 | 158 | 1.0 | 4.0 | 0.00 | 0.00 | 0.00 | 93 | 1011.4 |
| 20260509120010 | 58 | 152 | 1.0 | 4.0 | 0.00 | 0.00 | 0.00 | 94 | 1011.1 |
| 20260509114512 | 57 | 146 | 0.0 | 2.0 | 0.00 | 0.00 | 0.00 | 94 | 1011.0 |
| 20260509113010 | 57 | 150 | 0.0 | 0.0 | 0.00 | 0.00 | 0.00 | 95 | 1010.9 |
| 20260509111513 | 56 | 153 | 0.0 | 0.0 | 0.00 | 0.00 | 0.00 | 95 | 1010.9 |
| 20260509110012 | 56 | 151 | 0.0 | 0.0 | 0.00 | 0.00 | 0.00 | 94 | 1010.9 |
| 20260509104513 | 56 | 148 | 0.0 | 0.0 | 0.00 | 0.00 | 0.00 | 94 | 1010.8 |
| 20260509103016 | 57 | 163 | 0.0 | 0.0 | 0.00 | 0.00 | 0.00 | 93 | 1010.7 |
| 20260509101514 | 57 | 165 | 0.0 | 1.0 | 0.00 | 0.00 | 0.00 | 93 | 1010.6 |
| 20260509100021 | 57 | 165 | 0.0 | 1.0 | 0.00 | 0.00 | 0.00 | 93 | 1010.7 |
| 20260509094514 | 57 | 165 | 0.0 | 0.0 | 0.00 | 0.00 | 0.00 | 93 | 1010.7 |
| 20260509093014 | 56 | 157 | 0.0 | 0.0 | 0.00 | 0.00 | 0.00 | 94 | 1010.9 |
| 20260509091514 | 57 | 157 | 0.0 | 0.0 | 0.00 | 0.00 | 0.00 | 92 | 1010.7 |
| 20260509090018 | 57 | 157 | 0.0 | 0.0 | 0.00 | 0.00 | 0.00 | 91 | 1010.5 |
| 20260509084516 | 57 | 157 | 0.0 | 0.0 | 0.00 | 0.00 | 0.00 | 91 | 1010.0 |
| 20260509083014 | 58 | 157 | 0.0 | 0.0 | 0.00 | 0.00 | 0.00 | 90 | 1009.9 |
| 20260509081514 | 58 | 157 | 0.0 | 0.0 | 0.00 | 0.00 | 0.00 | 89 | 1010.1 |
| 20260509080023 | 59 | 157 | 0.0 | 0.0 | 0.00 | 0.00 | 0.00 | 88 | 1010.1 |
| 20260509074516 | 59 | 157 | 0.0 | 3.0 | 0.00 | 0.00 | 0.00 | 87 | 1010.4 |
| 20260509073015 | 60 | 171 | 0.0 | 2.0 | 0.00 | 0.00 | 0.00 | 87 | 1010.0 |
| 20260509071518 | 60 | 101 | 0.0 | 3.0 | 0.00 | 0.00 | 0.00 | 86 | 1010.2 |
| 20260509070015 | 60 | 227 | 0.0 | 2.0 | 0.00 | 0.00 | 0.00 | 86 | 1010.4 |
| 20260509064517 | 60 | 153 | 0.0 | 3.0 | 0.00 | 0.00 | 0.00 | 86 | 1009.9 |
| 20260509063020 | 60 | 153 | 0.0 | 3.0 | 0.00 | 0.00 | 0.00 | 86 | 1009.6 |
| 20260509061521 | 59 | 153 | 0.0 | 4.0 | 0.00 | 0.00 | 0.00 | 86 | 1010.6 |
| 20260509060022 | 59 | 155 | 0.0 | 1.0 | 0.00 | 0.00 | 0.00 | 86 | 1011.1 |
| 20260509054517 | 59 | 160 | 0.0 | 3.0 | 0.00 | 0.00 | 0.00 | 85 | 1011.3 |
| 20260509053020 | 59 | 162 | 0.0 | 0.0 | 0.00 | 0.00 | 0.00 | 85 | 1011.5 |
| 20260509051522 | 60 | 162 | 0.0 | 1.0 | 0.00 | 0.00 | 0.00 | 85 | 1011.4 |
| 20260509050021 | 60 | 161 | 0.0 | 1.0 | 0.00 | 0.00 | 0.00 | 83 | 1011.7 |
| 20260509044522 | 60 | 155 | 0.0 | 1.0 | 0.00 | 0.00 | 0.00 | 83 | 1012.3 |
| 20260509043020 | 61 | 155 | 0.0 | 1.0 | 0.00 | 0.00 | 0.00 | 83 | 1012.2 |
| 20260509041531 | 61 | 174 | 0.0 | 1.0 | 0.00 | 0.00 | 0.00 | 82 | 1012.0 |
| 20260509040023 | 61 | 166 | 0.0 | 0.0 | 0.00 | 0.00 | 0.00 | 81 | 1011.8 |
| 20260509034522 | 62 | 163 | 0.0 | 2.0 | 0.00 | 0.00 | 0.00 | 80 | 1011.5 |
| 20260509033006 | 62 | 148 | 0.0 | 3.0 | 0.00 | 0.00 | 0.00 | 79 | 1011.6 |
| 20260509031524 | 63 | 152 | 0.0 | 3.0 | 0.00 | 0.00 | 0.00 | 78 | 1011.4 |
| 20260509030023 | 63 | 148 | 0.0 | 3.0 | 0.00 | 0.00 | 0.00 | 77 | 1011.9 |
| 20260509024523 | 64 | 150 | 0.0 | 1.0 | 0.00 | 0.00 | 0.00 | 75 | 1011.9 |
| 20260509023022 | 65 | 149 | 0.0 | 0.0 | 0.00 | 0.00 | 0.00 | 74 | 1011.7 |
| 20260509021522 | 65 | 148 | 0.0 | 3.0 | 0.00 | 0.00 | 0.00 | 73 | 1011.3 |
| 20260509020025 | 66 | 150 | 0.0 | 2.0 | 0.00 | 0.00 | 0.00 | 72 | 1011.4 |
| 20260509014524 | 66 | 167 | 0.0 | 2.0 | 0.00 | 0.00 | 0.00 | 71 | 1011.3 |
| 20260509013027 | 67 | 186 | 0.0 | 2.0 | 0.00 | 0.00 | 0.00 | 69 | 1011.4 |
| 20260509011527 | 68 | 145 | 0.0 | 4.0 | 0.00 | 0.00 | 0.00 | 67 | 1011.3 |
| 20260509010036 | 69 | 168 | 0.0 | 3.0 | 0.00 | 0.00 | 0.00 | 66 | 1011.3 |
| 20260509004528 | 70 | 167 | 0.0 | 6.0 | 0.00 | 0.00 | 0.00 | 63 | 1011.2 |
| 20260509003023 | 70 | 177 | 0.0 | 3.0 | 0.00 | 0.00 | 0.00 | 61 | 1011.1 |
| 20260509001525 | 71 | 140 | 1.0 | 5.0 | 0.00 | 0.00 | 0.00 | 57 | 1010.9 |
| 20260509000022 | 72 | 168 | 2.0 | 7.0 | 0.00 | 0.00 | 0.00 | 55 | 1010.9 |
| 20260508234524 | 73 | 164 | 2.0 | 6.0 | 0.00 | 0.00 | 0.00 | 53 | 1011.1 |
| 20260508233023 | 73 | 156 | 1.0 | 6.0 | 0.00 | 0.00 | 0.00 | 53 | 1011.1 |
| 20260508231522 | 74 | 153 | 3.0 | 6.0 | 0.00 | 0.00 | 0.00 | 52 | 1011.2 |
| 20260508230032 | 75 | 250 | 2.0 | 6.0 | 0.00 | 0.00 | 0.00 | 51 | 1011.2 |
| 20260508224526 | 75 | 160 | 1.0 | 5.0 | 0.00 | 0.00 | 0.00 | 53 | 1011.3 |
| 20260508223019 | 75 | 154 | 0.0 | 7.0 | 0.00 | 0.00 | 0.00 | 51 | 1011.2 |
| 20260508221537 | 76 | 146 | 2.0 | 6.0 | 0.00 | 0.00 | 0.00 | 47 | 1011.5 |
| 20260508220020 | 75 | 165 | 1.0 | 10.0 | 0.00 | 0.00 | 0.00 | 48 | 1011.5 |
| 20260508214521 | 76 | 166 | 3.0 | 8.0 | 0.00 | 0.00 | 0.00 | 47 | 1011.4 |
| 20260508213024 | 77 | 180 | 1.0 | 6.0 | 0.00 | 0.00 | 0.00 | 46 | 1011.6 |
| 20260508211518 | 76 | 151 | 3.0 | 8.0 | 0.00 | 0.00 | 0.00 | 45 | 1011.9 |
| 20260508210020 | 76 | 138 | 3.0 | 9.0 | 0.00 | 0.00 | 0.00 | 46 | 1011.9 |
| 20260508204521 | 76 | 157 | 4.0 | 10.0 | 0.00 | 0.00 | 0.00 | 49 | 1012.1 |
| 20260508203019 | 75 | 200 | 2.0 | 8.0 | 0.00 | 0.00 | 0.00 | 45 | 1012.2 |
| 20260508201520 | 76 | 175 | 1.0 | 6.0 | 0.00 | 0.00 | 0.00 | 46 | 1012.5 |
| 20260508200020 | 76 | 8 | 1.0 | 5.0 | 0.00 | 0.00 | 0.00 | 52 | 1012.4 |
| 20260508194518 | 75 | 238 | 3.0 | 8.0 | 0.00 | 0.00 | 0.00 | 47 | 1012.8 |
| 20260508193023 | 75 | 338 | 0.0 | 4.0 | 0.00 | 0.00 | 0.00 | 54 | 1012.6 |
| 20260508191520 | 74 | 146 | 0.0 | 4.0 | 0.00 | 0.00 | 0.00 | 50 | 1012.8 |
| 20260508190022 | 74 | 153 | 2.0 | 5.0 | 0.00 | 0.00 | 0.00 | 50 | 1013.3 |
| 20260508184524 | 73 | 1 | 0.0 | 5.0 | 0.00 | 0.00 | 0.00 | 50 | 1013.5 |